Location: Dampvalley
(47.9094°N, 6.1967°E)
Time: 13:52:29
(UTC+00:00)

Cosmos 1992 Rocket - Pass Details

Date: 05 March 2021
Orbit: 759 x 765 km, 74.0° (Epoch: 15 April)

Event Time Altitude Azimuth Distance (km) Brightness Sun altitude
Rises 03:31:52 0° 339° (NNW) 3,235 7.3 -26.6°
Reaches altitude 10° 03:34:17 10° 343° (NNW) 2,305 6.5 -26.2°
Maximum altitude 03:39:27 61° 64° (ENE) 864 4.4 -25.4°
Drops below altitude 10° 03:44:35 10° 145° (SE) 2,286 6.6 -24.6°
Sets 03:46:59 0° 149° (SSE) 3,207 7.4 -24.2°
